Juneau, WI

2:46 PM CDT on June 23, 2017 (GMT -0500)
Dodge County

Weather History for KUNU - March, 2014

Change the Weather History Date:

Tuesday, March 18, 2014

  Actual Average Record
Temperature  
Mean Temperature 36 °F -  
Max Temperature 46 °F 38 °F 78 °F (2012)
Min Temperature 26 °F 24 °F 3 °F (1978)
Degree Days  
Heating Degree Days 29    
Moisture  
Dew Point 26 °F    
Average Humidity 70    
Maximum Humidity 87    
Minimum Humidity 41    
Precipitation  
Precipitation 0.00 in - - ()
Sea Level Pressure  
Sea Level Pressure 29.79 in    
Wind  
Wind Speed 10 mph (ESE)    
Max Wind Speed 17 mph    
Max Gust Speed 24 mph    
Visibility 9 miles    
Events      
Averages and records for this station are not official NWS values.
T = Trace of Precipitation, MM = Missing Value Source: NWS Daily Summary

Daily Weather History Graph

Daily Weather History Graph

Search for Another Location

Airport or City:

Trip Planner

Search our weather history database for the weather conditions in past years. The results will help you decide how hot, cold, wet, or windy it might be!

Date:

Astronomy

Mar. 18, 2014 Rise Set
Actual Time 7:01 AM CDT 7:04 PM CDT
Civil Twilight 6:33 AM CDT 7:33 PM CDT
Nautical Twilight 5:59 AM CDT 8:06 PM CDT
Astronomical Twilight 5:25 AM CDT 8:40 PM CDT
Moon 9:26 PM CDT (3/18) 7:47 AM CDT (3/18)
Length of Visible Light 13h 00m
Length of Day
12h 03m
Waning Gibbous, 96% of the Moon is Illuminated
Mar 18
Waning Gibbous
Mar 23
Last Quarter
Mar 30
New
Apr 7
First Quarter
Apr 15
Full

Hourly Weather History & Observations

Time (CDT) Temp. Windchill Dew Point Humidity Pressure Visibility Wind Dir Wind Speed Gust Speed Precip Events Conditions
12:15 AM 26.4 °F 18.9 °F 20.3 °F 78% 29.81 in 10.0 mi ESE 6.9 mph - N/A   Clear
12:35 AM 26.6 °F 19.1 °F 21.0 °F 79% 29.81 in 10.0 mi ESE 6.9 mph - N/A   Clear
12:55 AM 26.6 °F 18.2 °F 21.2 °F 80% 29.80 in 10.0 mi ESE 8.1 mph - N/A   Clear
1:15 AM 27.1 °F 18.9 °F 21.4 °F 79% 29.80 in 10.0 mi ESE 8.1 mph - N/A   Clear
1:35 AM 27.1 °F 18.2 °F 21.7 °F 80% 29.81 in 10.0 mi ESE 9.2 mph - N/A   Clear
1:55 AM 27.1 °F 18.9 °F 21.9 °F 81% 29.81 in 10.0 mi ESE 8.1 mph - N/A   Clear
2:15 AM 27.3 °F 18.4 °F 22.3 °F 81% 29.81 in 10.0 mi ESE 9.2 mph - N/A   Clear
2:35 AM 28.2 °F 19.5 °F 22.6 °F 80% 29.81 in 10.0 mi SE 9.2 mph - N/A   Clear
2:55 AM 28.2 °F 19.5 °F 22.8 °F 80% 29.81 in 10.0 mi ESE 9.2 mph - N/A   Clear
3:15 AM 28.2 °F 19.5 °F 23.0 °F 81% 29.81 in 7.0 mi ESE 9.2 mph - N/A   Clear
3:35 AM 27.7 °F 20.4 °F 22.8 °F 82% 29.81 in 7.0 mi ESE 6.9 mph - N/A   Clear
3:55 AM 27.5 °F 19.3 °F 23.0 °F 83% 29.81 in 7.0 mi SE 8.1 mph - N/A   Clear
4:15 AM 27.3 °F 19.9 °F 22.6 °F 83% 29.80 in 7.0 mi ESE 6.9 mph - N/A   Clear
4:35 AM 27.0 °F 17.3 °F 23.0 °F 85% 29.80 in 7.0 mi ESE 10.4 mph - N/A   Clear
4:55 AM 27.3 °F 17.7 °F 23.5 °F 86% 29.80 in 7.0 mi SE 10.4 mph - N/A   Clear
5:15 AM 27.3 °F 17.7 °F 23.4 °F 85% 29.80 in 7.0 mi ESE 10.4 mph - N/A   Clear
5:35 AM 27.3 °F 17.7 °F 23.4 °F 85% 29.80 in 5.0 mi ESE 10.4 mph - N/A   Clear
5:55 AM 26.6 °F 19.1 °F 23.0 °F 86% 29.81 in 5.0 mi ESE 6.9 mph - N/A   Clear
6:15 AM 26.4 °F 17.3 °F 23.0 °F 87% 29.81 in 5.0 mi ESE 9.2 mph - N/A   Clear
6:35 AM 26.6 °F 16.8 °F 23.0 °F 86% 29.81 in 5.0 mi ESE 10.4 mph - N/A   Clear
6:55 AM 26.8 °F 17.1 °F 23.2 °F 86% 29.81 in 5.0 mi ESE 10.4 mph - N/A   Clear
7:15 AM 26.6 °F 17.5 °F 23.2 °F 87% 29.82 in 5.0 mi ESE 9.2 mph - N/A   Clear
7:35 AM 27.1 °F 18.2 °F 23.7 °F 87% 29.81 in 5.0 mi ESE 9.2 mph - N/A   Clear
7:55 AM 28.8 °F 18.4 °F 24.8 °F 85% 29.82 in 5.0 mi ESE 12.7 mph - N/A   Clear
8:15 AM 29.7 °F 19.6 °F 25.2 °F 83% 29.82 in 7.0 mi ESE 12.7 mph - N/A   Clear
8:35 AM 30.2 °F 20.8 °F 25.7 °F 83% 29.83 in 5.0 mi ESE 11.5 mph - N/A   Clear
8:55 AM 32.0 °F 23.0 °F 26.8 °F 81% 29.84 in 7.0 mi SE 11.5 mph - N/A   Clear
9:15 AM 33.3 °F 24.1 °F 27.1 °F 78% 29.84 in 10.0 mi SE 12.7 mph - N/A   Clear
9:35 AM 33.4 °F 24.8 °F 27.3 °F 78% 29.84 in 10.0 mi SE 11.5 mph - N/A   Clear
9:55 AM 34.2 °F 26.2 °F 27.3 °F 76% 29.84 in 10.0 mi SE 10.4 mph - N/A   Clear
10:15 AM 35.6 °F 27.5 °F 27.7 °F 73% 29.84 in 10.0 mi SE 11.5 mph - N/A   Clear
10:35 AM 36.7 °F 28.0 °F 27.7 °F 70% 29.84 in 10.0 mi SE 13.8 mph - N/A   Clear
10:55 AM 38.3 °F 30.1 °F 28.0 °F 67% 29.84 in 10.0 mi SE 13.8 mph 18.4 mph N/A   Clear
11:15 AM 39.4 °F 31.4 °F 28.2 °F 64% 29.85 in 10.0 mi SE 13.8 mph - N/A   Clear
11:35 AM 40.3 °F 32.2 °F 28.4 °F 63% 29.85 in 10.0 mi SSE 15.0 mph - N/A   Clear
11:55 AM 40.1 °F 31.6 °F 27.9 °F 62% 29.85 in 10.0 mi SSE 16.1 mph 20.7 mph N/A   Clear
12:15 PM 41.0 °F 33.5 °F 28.0 °F 60% 29.84 in 10.0 mi SSE 13.8 mph - N/A   Clear
12:35 PM 41.0 °F 33.9 °F 28.0 °F 60% 29.84 in 10.0 mi SE 12.7 mph - N/A   Clear
12:55 PM 41.9 °F 34.6 °F 28.4 °F 59% 29.82 in 10.0 mi ESE 13.8 mph - N/A   Clear
1:15 PM 43.0 °F 36.4 °F 28.6 °F 57% 29.82 in 10.0 mi SE 12.7 mph - N/A   Clear
1:35 PM 43.7 °F 36.3 °F 28.0 °F 54% 29.81 in 10.0 mi ESE 16.1 mph - N/A   Clear
1:55 PM 44.1 °F 39.0 °F 27.7 °F 53% 29.81 in 10.0 mi ESE 9.2 mph - N/A   Clear
2:15 PM 44.8 °F 39.9 °F 27.0 °F 50% 29.82 in 10.0 mi SE 9.2 mph - N/A   Clear
2:35 PM 44.8 °F 39.4 °F 26.6 °F 49% 29.81 in 10.0 mi SE 10.4 mph - N/A   Clear
2:55 PM 45.9 °F 40.0 °F 26.8 °F 47% 29.79 in 10.0 mi East 12.7 mph - N/A   Clear
3:15 PM 46.4 °F 40.4 °F 24.8 °F 43% 29.78 in 10.0 mi ESE 13.8 mph - N/A   Clear
3:35 PM 46.2 °F 40.8 °F 24.1 °F 42% 29.79 in 10.0 mi SE 11.5 mph - N/A   Clear
3:55 PM 46.6 °F - 24.1 °F 41% 29.79 in 10.0 mi SE 9.2 mph - N/A   Clear
4:15 PM 44.2 °F 39.2 °F 27.1 °F 51% 29.79 in 10.0 mi ESE 9.2 mph - N/A   Clear
4:35 PM 42.8 °F 37.0 °F 27.5 °F 55% 29.78 in 10.0 mi ESE 10.4 mph - N/A   Clear
4:55 PM 42.1 °F 36.1 °F 27.0 °F 55% 29.77 in 10.0 mi East 10.4 mph - N/A   Scattered Clouds
5:15 PM 41.0 °F 34.3 °F 26.6 °F 57% 29.76 in 10.0 mi East 11.5 mph - N/A   Clear
5:35 PM 39.6 °F 31.7 °F 27.0 °F 61% 29.74 in 10.0 mi East 13.8 mph 18.4 mph N/A   Clear
5:55 PM 38.8 °F 30.4 °F 27.5 °F 64% 29.72 in 10.0 mi East 15.0 mph 18.4 mph N/A   Clear
6:15 PM 38.8 °F 29.7 °F 27.7 °F 64% 29.72 in 10.0 mi East 17.3 mph 24.2 mph N/A   Clear
6:35 PM 37.9 °F 28.9 °F 27.1 °F 65% 29.74 in 10.0 mi ESE 16.1 mph - N/A   Clear
6:55 PM 37.4 °F 30.3 °F 27.3 °F 67% 29.75 in 10.0 mi East 10.4 mph 17.3 mph N/A   Clear
7:15 PM 37.4 °F 28.9 °F 26.8 °F 66% 29.75 in 10.0 mi East 13.8 mph - N/A   Scattered Clouds
7:35 PM 37.4 °F 29.3 °F 27.0 °F 66% 29.75 in 10.0 mi East 12.7 mph - N/A   Mostly Cloudy
7:55 PM 37.6 °F 29.1 °F 27.0 °F 66% 29.76 in 10.0 mi East 13.8 mph 18.4 mph N/A   Overcast
8:15 PM 37.6 °F 30.0 °F 27.1 °F 66% 29.76 in 10.0 mi East 11.5 mph - N/A   Overcast
8:35 PM 37.4 °F 29.3 °F 27.5 °F 67% 29.76 in 10.0 mi East 12.7 mph 17.3 mph N/A   Overcast
8:55 PM 37.4 °F 28.9 °F 27.9 °F 68% 29.75 in 10.0 mi East 13.8 mph - N/A   Overcast
9:15 PM 37.8 °F 29.0 °F 27.9 °F 67% 29.75 in 10.0 mi East 15.0 mph 19.6 mph N/A   Mostly Cloudy
9:35 PM 37.9 °F 30.0 °F 28.0 °F 68% 29.76 in 10.0 mi East 12.7 mph - N/A   Overcast
9:55 PM 37.8 °F 29.8 °F 28.8 °F 70% 29.76 in 10.0 mi East 12.7 mph 18.4 mph N/A   Overcast
10:15 PM 37.8 °F 29.4 °F 29.3 °F 72% 29.75 in 10.0 mi East 13.8 mph - N/A   Overcast
10:35 PM 37.9 °F 29.2 °F 29.8 °F 73% 29.74 in 10.0 mi East 15.0 mph - N/A   Overcast
10:55 PM 37.9 °F 30.0 °F 29.8 °F 73% 29.73 in 10.0 mi East 12.7 mph 18.4 mph N/A   Overcast
11:15 PM 38.3 °F 29.7 °F 29.8 °F 72% 29.72 in 10.0 mi East 15.0 mph 18.4 mph N/A   Overcast
11:35 PM 38.3 °F 29.3 °F 29.7 °F 71% 29.71 in 10.0 mi East 16.1 mph - N/A   Overcast
11:55 PM 37.9 °F 30.9 °F 30.2 °F 74% 29.70 in 10.0 mi East 10.4 mph - N/A   Overcast